Tracking 28790 objects as of 19-Apr-2024
HD Live streaming from Space Station
objects crossing your sky now

SKYNET 4E

Track SKYNET 4E now!
SKYNET 4E is classified as:


NORAD ID: 25639
Int'l Code: 1999-009B
Perigee: 35,779.6 km
Apogee: 35,806.2 km
Inclination: 11.6 °
Period: 1,436.1 minutes
Semi major axis: 42163 km
RCS: 5.2477 m2 (large)
Launch date: February 26, 1999
Source: United Kingdom (UK)
Launch site: FRENCH GUIANA (FRGUI)

Used primarily by UK's armed forces, government departments, agencies and other organizations that require secure communications.
Your satellite tracking list
Your tracking list is empty




NASA's NSSDC Master Catalog

Two Line Element Set (TLE):
1 25639U 99009B   24108.96126260 -.00000036  00000-0  00000-0 0  9999
2 25639  11.6016  13.3939 0003162  13.5341 164.4946  1.00274777 43465
Source of the keplerian elements: AFSPC